• In Hungary
  • List of Countries
  • For 7 days
  • Water Temperature
  • Satellite Maps
  • Weather Map
  • News
  • Weather Widgets
  • user-avatar
    Login

    Hourly Weather San Andres del Rabanedo

    Today, 26 September, Wednesday

    Time Temperature Precipitation Wind Pressure Humidity
    00:00 +13°C° 0 mm 2 mps 691 mmHg 55%
    01:00 +12°C° 0 mm 2 mps 691 mmHg 55%
    02:00 +12°C° 0 mm 2 mps 691 mmHg 54%
    03:00 +12°C° 0 mm 2 mps 691 mmHg 54%
    04:00 +12°C° 0 mm 2 mps 691 mmHg 56%
    05:00 +12°C° 0 mm 2 mps 691 mmHg 59%
    06:00 +12°C° 0 mm 2 mps 690 mmHg 61%
    07:00 +13°C° 0 mm 3 mps 691 mmHg 58%
    08:00 +16°C° 0 mm 3 mps 692 mmHg 55%
    09:00 +19°C° 0 mm 3 mps 692 mmHg 52%
    10:00 +21°C° 0 mm 3 mps 693 mmHg 47%
    11:00 +24°C° 0 mm 2 mps 693 mmHg 43%
    12:00 +26°C° 0 mm 2 mps 693 mmHg 38%
    13:00 +27°C° 0 mm 2 mps 693 mmHg 36%
    14:00 +28°C° 0 mm 2 mps 693 mmHg 33%
    15:00 +28°C° 0 mm 2 mps 693 mmHg 31%
    16:00 +27°C° 0 mm 1 mps 693 mmHg 36%
    17:00 +25°C° 0 mm 1 mps 693 mmHg 40%
    18:00 +23°C° 0 mm 1 mps 692 mmHg 45%
    19:00 +22°C° 0 mm 1 mps 693 mmHg 46%
    20:00 +20°C° 0 mm 2 mps 693 mmHg 47%
    21:00 +19°C° 0 mm 2 mps 694 mmHg 48%
    22:00 +19°C° 0 mm 2 mps 694 mmHg 49%
    23:00 +18°C° 0 mm 2 mps 694 mmHg 51%

    Tomorrow, 27 September, Thursday

    Time Temperature Precipitation Wind Pressure Humidity
    00:00 +18°C° 0 mm 2 mps 694 mmHg 53%
    01:00 +17°C° 0 mm 2 mps 694 mmHg 57%
    02:00 +17°C° 0 mm 2 mps 694 mmHg 61%
    03:00 +17°C° 0 mm 2 mps 693 mmHg 65%
    04:00 +16°C° 0 mm 2 mps 693 mmHg 70%
    05:00 +16°C° 0 mm 2 mps 693 mmHg 75%
    06:00 +15°C° 0 mm 2 mps 693 mmHg 81%
    07:00 +17°C° 0 mm 2 mps 694 mmHg 75%
    08:00 +19°C° 0 mm 2 mps 695 mmHg 69%
    09:00 +21°C° 0 mm 2 mps 695 mmHg 63%
    10:00 +24°C° 0 mm 2 mps 695 mmHg 56%
    11:00 +25°C° 0 mm 2 mps 695 mmHg 49%
    12:00 +27°C° 0 mm 1 mps 696 mmHg 43%
    13:00 +27°C° 0 mm 1 mps 695 mmHg 41%
    14:00 +28°C° 0 mm 1 mps 695 mmHg 39%
    15:00 +28°C° 0 mm 1 mps 694 mmHg 37%
    16:00 +27°C° 0 mm 1 mps 694 mmHg 42%
    17:00 +25°C° 0 mm 1 mps 694 mmHg 47%
    18:00 +24°C° 0 mm 1 mps 693 mmHg 52%
    19:00 +23°C° 0.1 mm 1 mps 694 mmHg 55%
    20:00 +21°C° 0.1 mm 1 mps 694 mmHg 57%
    21:00 +20°C° 0.1 mm 1 mps 694 mmHg 60%
    22:00 +19°C° 0 mm 2 mps 693 mmHg 61%
    23:00 +19°C° 0 mm 2 mps 693 mmHg 62%

    Day after tomorrow, 28 September, Friday

    Time Temperature Precipitation Wind Pressure Humidity
    00:00 +18°C° 0 mm 2 mps 693 mmHg 63%
    01:00 +18°C° 0.1 mm 2 mps 692 mmHg 64%
    02:00 +18°C° 0.1 mm 2 mps 692 mmHg 65%
    03:00 +17°C° 0.1 mm 2 mps 692 mmHg 66%
    04:00 +17°C° 0.2 mm 2 mps 691 mmHg 68%
    05:00 +17°C° 0.2 mm 2 mps 691 mmHg 69%
    06:00 +17°C° 0.2 mm 2 mps 691 mmHg 71%
    07:00 +20°C° 0.2 mm 1 mps 691 mmHg 65%
    08:00 +21°C° 0.2 mm 1 mps 692 mmHg 60%
    09:00 +23°C° 0.2 mm 1 mps 692 mmHg 54%
    10:00 +25°C° 0.7 mm 1 mps 692 mmHg 51%
    11:00 +26°C° 0.7 mm 1 mps 692 mmHg 47%
    12:00 +27°C° 0.7 mm 1 mps 692 mmHg 44%
    13:00 +27°C° 1 mm 1 mps 691 mmHg 43%
    14:00 +27°C° 1 mm 1 mps 691 mmHg 43%
    15:00 +27°C° 1 mm 1 mps 690 mmHg 43%
    16:00 +26°C° 0.7 mm 1 mps 690 mmHg 47%
    17:00 +25°C° 0.7 mm 1 mps 689 mmHg 51%
    18:00 +23°C° 0.7 mm 2 mps 689 mmHg 55%
    19:00 +21°C° 0.4 mm 2 mps 689 mmHg 60%
    20:00 +20°C° 0.4 mm 2 mps 689 mmHg 65%
    21:00 +18°C° 0.4 mm 2 mps 689 mmHg 70%
    22:00 +18°C° 0 mm 2 mps 688 mmHg 72%
    23:00 +17°C° 0 mm 2 mps 688 mmHg 74%

    29 September, Saturday

    Time Temperature Precipitation Wind Pressure Humidity
    00:00 +16°C° 0 mm 2 mps 688 mmHg 75%
    01:00 +16°C° 0 mm 2 mps 687 mmHg 76%
    02:00 +15°C° 0 mm 2 mps 687 mmHg 77%
    03:00 +15°C° 0 mm 1 mps 687 mmHg 78%
    04:00 +15°C° 0 mm 1 mps 686 mmHg 78%
    05:00 +14°C° 0 mm 1 mps 686 mmHg 79%
    06:00 +14°C° 0 mm 1 mps 686 mmHg 80%
    07:00 +16°C° 0 mm 1 mps 686 mmHg 73%
    08:00 +19°C° 0 mm 1 mps 687 mmHg 66%
    09:00 +20°C° 0 mm 1 mps 687 mmHg 60%
    10:00 +22°C° 0 mm 1 mps 687 mmHg 55%
    11:00 +23°C° 0 mm 1 mps 687 mmHg 51%
    12:00 +25°C° 0 mm 1 mps 687 mmHg 47%
    13:00 +25°C° 0.1 mm 2 mps 686 mmHg 46%
    14:00 +25°C° 0.1 mm 2 mps 686 mmHg 44%
    15:00 +26°C° 0.1 mm 3 mps 686 mmHg 43%
    16:00 +24°C° 0.1 mm 2 mps 686 mmHg 48%
    17:00 +23°C° 0.1 mm 2 mps 686 mmHg 53%
    18:00 +22°C° 0.1 mm 1 mps 685 mmHg 57%
    19:00 +20°C° 0 mm 2 mps 685 mmHg 62%
    20:00 +19°C° 0 mm 2 mps 686 mmHg 67%
    21:00 +18°C° 0 mm 2 mps 686 mmHg 71%
    22:00 +17°C° 0 mm 2 mps 685 mmHg 75%
    23:00 +16°C° 0 mm 2 mps 685 mmHg 78%

    30 September, Sunday

    Time Temperature Precipitation Wind Pressure Humidity
    00:00 +16°C° 0 mm 2 mps 685 mmHg 82%
    01:00 +15°C° 0 mm 1 mps 685 mmHg 82%
    02:00 +15°C° 0 mm 1 mps 684 mmHg 82%
    03:00 +15°C° 0 mm 1 mps 684 mmHg 81%
    04:00 +15°C° 0 mm 1 mps 684 mmHg 82%
    05:00 +14°C° 0 mm 1 mps 684 mmHg 83%
    06:00 +14°C° 0 mm 1 mps 684 mmHg 84%
    07:00 +16°C° 0 mm 1 mps 685 mmHg 76%
    08:00 +19°C° 0 mm 1 mps 685 mmHg 68%
    09:00 +19°C° 0 mm 0 mps 686 mmHg 60%
    10:00 +22°C° 0 mm 1 mps 686 mmHg 51%
    11:00 +24°C° 0 mm 2 mps 686 mmHg 43%
    12:00 +25°C° 0 mm 3 mps 687 mmHg 34%
    13:00 +26°C° 0 mm 3 mps 686 mmHg 34%
    14:00 +26°C° 0 mm 3 mps 686 mmHg 33%
    15:00 +26°C° 0 mm 4 mps 686 mmHg 33%
    16:00 +24°C° 0 mm 3 mps 686 mmHg 40%
    17:00 +22°C° 0 mm 3 mps 686 mmHg 47%
    18:00 +20°C° 0 mm 3 mps 686 mmHg 54%
    19:00 +19°C° 0 mm 3 mps 686 mmHg 62%
    20:00 +17°C° 0 mm 3 mps 686 mmHg 70%
    21:00 +15°C° 0 mm 4 mps 686 mmHg 78%
    22:00 +16°C° 0 mm 3 mps 686 mmHg 81%
    23:00 +14°C° 0 mm 3 mps 686 mmHg 84%

    1 October, Monday

    Time Temperature Precipitation Wind Pressure Humidity
    00:00 +13°C° 0 mm 3 mps 685 mmHg 86%
    01:00 +13°C° 0 mm 3 mps 685 mmHg 87%
    02:00 +13°C° 0 mm 3 mps 685 mmHg 87%
    03:00 +12°C° 0 mm 3 mps 685 mmHg 88%
    04:00 +12°C° 0 mm 3 mps 685 mmHg 88%
    05:00 +12°C° 0 mm 3 mps 685 mmHg 88%
    06:00 +12°C° 0 mm 3 mps 685 mmHg 88%
    07:00 +13°C° 0 mm 3 mps 685 mmHg 82%
    08:00 +14°C° 0 mm 4 mps 685 mmHg 76%
    09:00 +15°C° 0 mm 4 mps 685 mmHg 70%
    10:00 +15°C° 0.1 mm 4 mps 685 mmHg 68%
    11:00 +15°C° 0.1 mm 4 mps 685 mmHg 67%
    12:00 +17°C° 0.1 mm 4 mps 685 mmHg 65%
    13:00 +17°C° 0 mm 4 mps 685 mmHg 65%
    14:00 +16°C° 0 mm 5 mps 685 mmHg 65%
    15:00 +16°C° 0 mm 5 mps 685 mmHg 65%
    16:00 +15°C° 0 mm 4 mps 685 mmHg 67%
    17:00 +15°C° 0 mm 4 mps 685 mmHg 70%
    18:00 +14°C° 0 mm 4 mps 686 mmHg 72%
    19:00 +13°C° 0 mm 4 mps 686 mmHg 75%
    20:00 +12°C° 0 mm 3 mps 686 mmHg 78%
    21:00 +11°C° 0 mm 3 mps 686 mmHg 81%
    22:00 +11°C° 0 mm 3 mps 686 mmHg 82%
    23:00 +11°C° 0 mm 3 mps 686 mmHg 83%
    Show more